Regional Weather Roundup
Issued by NWS

Home | Current Version | Previous Version | Graphics & Text | Print | Product List | Glossary On
Versions: 1 2 3 4 5 6 7 8 9 10 11 12 13 14 15 16 17 18 19 20 21 22 23 24 25 26 27 28 29 30 31 32 33 34 35 36 37 38 39 40 41 42 43 44 45 46 47 48 49 50
000
ASUS43 KMKX 280821
RWRWI

WISCONSIN REGIONAL WEATHER ROUNDUP
NATIONAL WEATHER SERVICE MILWAUKEE/SULLIVAN WI
200 AM CST FRI NOV 28 2014

NOTE: "FAIR" INDICATES FEW OR NO CLOUDS BELOW 12,000 FEET WITH NO
SIGNIFICANT WEATHER AND/OR OBSTRUCTIONS TO VISIBILITY.

WIZ001-002-006>008-014>016-023>028-280900-
NORTHWEST WISCONSIN

CITY           SKY/WX    TMP DP  RH WIND       PRES   REMARKS
SUPERIOR ARPT  CLOUDY     8   0  69 CALM      30.24F
ASHLAND        CLOUDY     5   0  79 SE3       30.26F
HAYWARD        CLOUDY     7  -1  70 S5        30.22F WCI  -2
SIREN          LGT SNOW   8   4  84 SE3       30.20F
CUMBERLAND     LGT SNOW   9   3  78 S7        30.21F WCI  -3
RICE LAKE      LGT SNOW   8   4  82 SE6       30.25S WCI  -2
CHETEK         LGT SNOW   8   3  82 SE5       30.25R WCI  -1
LADYSMITH      CLOUDY     7   1  75 SE3       30.27R
EAU CLAIRE     LGT SNOW   9   3  77 SE7       30.27S WCI  -2
MENOMONIE      LGT SNOW  10   4  79 E7        30.26F WCI  -1
NEW RICHMOND   LGT SNOW   9   5  82 SE6       30.22F WCI  -1
OSCEOLA        LGT SNOW  10   6  87 SE7       30.24F WCI  -2
$$

WIZ003>005-009-010-017-018-280900-
NORTH CENTRAL WISCONSIN

CITY           SKY/WX    TMP DP  RH WIND       PRES   REMARKS
MANITOWISH WTR CLOUDY    -1  -5  85 CALM      30.21S
ARBOR VITAE    CLOUDY     1  -3  83 CALM      30.21S
WOODRUFF       CLOUDY     1  -3  83 CALM      30.21S
RHINELANDER    CLOUDY    -1  -4  87 CALM      30.23S
EAGLE RIVER    CLOUDY    -1  -6  80 CALM      30.21S
LAND O LAKES   CLOUDY    -5  -9  82 CALM      30.22S
PHILLIPS       CLOUDY     3  -2  81 CALM      30.22S
TOMAHAWK       MOCLDY     1  -3  85 CALM      30.25R
MEDFORD        CLOUDY     5   0  78 SE3       30.22F
MERRILL        PTCLDY     2  -2  85 CALM      30.25S
$$

WIZ029-030-035-036-043>047-280900-
CENTRAL WISCONSIN

CITY           SKY/WX    TMP DP  RH WIND       PRES   REMARKS
WAUSAU         CLOUDY     5   1  83 CALM      30.27S
MOSINEE        CLOUDY     3   1  92 CALM      30.28S
MARSHFIELD     CLOUDY     7   1  76 S6        30.26F WCI  -3
STEVENS POINT  CLOUDY     1  -2  86 CALM      30.30S
WAUPACA        CLOUDY     6   2  82 CALM      30.34R
WAUTOMA        CLOUDY     6   1  80 CALM      30.34R
WISC RAPIDS    CLOUDY     6   1  80 CALM      30.31F
CAMP DOUGLAS   MOCLDY     9   7  89 E6        30.30F WCI   0
$$

WIZ011>013-019>022-031-037>040-048>050-280900-
NORTHEAST WISCONSIN

CITY           SKY/WX    TMP DP  RH WIND       PRES   REMARKS
ANTIGO         CLOUDY    -1  -4  87 CALM      30.24F
SHAWANO        MOCLDY     6   2  84 CALM      30.33R
OCONTO         MOCLDY     3   1  89 CALM      30.34R
STURGEON BAY   PTCLDY     7   0  72 SW3       30.32R
GREEN BAY      CLEAR      5   2  87 CALM      30.34S
MANITOWOC      PTCLDY     8   5  87 W5        30.34F WCI   0
APPLETON       CLOUDY     7   3  85 SW3       30.32S
CLINTONVILLE   MOCLDY     3   0  85 CALM      30.32S
OSHKOSH        MOCLDY     7   1  76 MISG      30.33S
$$

WIZ032>034-041-042-053>061-280900-
SOUTHWEST WISCONSIN

CITY           SKY/WX    TMP DP  RH WIND       PRES   REMARKS
LA CROSSE      FLURRIES  14   5  67 SE10      30.29F WCI   1
SPARTA         CLOUDY    11   4  72 CALM      30.30F
VIROQUA        CLOUDY    11   5  75 S8        30.25F WCI  -1
BOSCOBEL       LGT SNOW  15   6  67 E3        30.33F
PRAIRIE DU CHI FLURRIES  15   5  65 SE3       30.31F
PLATTEVILLE    CLOUDY    14   7  73 CALM      30.31F
$$

WIZ056-057-062-063-064-067-068-280900-
SOUTH CENTRAL WISCONSIN

CITY           SKY/WX    TMP DP  RH WIND       PRES   REMARKS
REEDSBURG      CLOUDY    10   5  79 CALM      30.32S
BARABOO/DELLS  CLOUDY    11   5  77 CALM      30.32F
LONE ROCK      CLOUDY    16   6  65 E3        30.34S
MINERAL POINT  CLOUDY    16   5  62 SE3       30.29S
MADISON        CLOUDY    14   5  67 VRB6      30.34R WCI   5
MIDDLETON      CLOUDY    16   8  71 S3        30.34S
WATERTOWN      MOCLDY    10   8  89 CALM      30.34S
MONROE         CLOUDY    14  10  85 CALM      30.31S
JANESVILLE     MOCLDY    18  12  79 CALM      30.35S
$$

WIZ051-052-058>065-066-070>072-280900-
SOUTHEAST WISCONSIN

CITY           SKY/WX    TMP DP  RH WIND       PRES   REMARKS
MILWAUKEE      MOCLDY    15   7  70 W3        30.35S
WAUKESHA       MOCLDY    12   9  85 CALM      30.34R
MILWAUKEE/TIMM MOCLDY    12   9  85 CALM      30.36R
RACINE         PTCLDY    13   8  81 W5        30.37S WCI   5
BURLINGTON     MOCLDY    10   8  90 SW3       30.34S
KENOSHA        MOCLDY    13   9  84 W5        30.36R WCI   5
FOND DU LAC    CLOUDY     7   3  84 CALM      30.34R
SHEBOYGAN      PTCLDY     7   3  84 W3        30.34S
WEST BEND      CLOUDY    10   5  79 CALM      30.33R
JUNEAU         CLOUDY     9   6  87 CALM      30.34R
$$

LSZ147-162-280900-
LAKE SUPERIOR

STATION/POSITION TIME  TEMP    WIND        PRES    WAVE
                       AIR SEA DIR/SP/G            HT/PER
                 (UTC) (F)     (DEG/KT/KT) (MB)    (FT/S)
DEVILS ISLAND    0800   12     210/ 12/ 14 1025.8F
PORT WING        0700    7     190/  4/  6 1025.7R
SAXON HARBOR     0700    5        CALM     1025.7F
$$

LMZ867-665-643>646-280900-
LAKE MICHIGAN

STATION/POSITION TIME  TEMP    WIND        PRES    WAVE
                       AIR SEA DIR/SP/G            HT/PER
                 (UTC) (F)     (DEG/KT/KT) (MB)    (FT/S)
CHAMBERS ISLAND  0700   14     270/  2/  6 1026.8F
N MID LAKE BUOY  0750   19 42  250/  8/ 10 1027.2F   1/ 3
NORTHPORT PIER   0814   13     250/  4/  7 1026.8R
SISTER BAY       0713          330/  9/ 10   N/A
KEWAUNEE LAKESHO 0800    8     290/  4/  6 1026.1F
SHEBOYGAN LAKESH 0800   11 34  270/  6/  8 1029.2S
PORT WASHINGTON  0720   12     280/  4/ 17 1028.4F
MILWAUKEE LAKESH 0800   15     300/  4/  4   N/A
S MID LAKE BUOY  0750   23 42  270/  4/  8 1028.7F   2/ 6
KENOSHA   LAKESH 0800   15     280/  6/  7 1028.1R
$$

TC  - TEMPERATURE IN CELSIUS
VSB - VISIBILITY IN STATUTE MILES
WCI - WIND CHILL INDEX
HX  - HEAT INDEX



USA.gov is the U.S. government's official web portal to all federal, state and local government web resources and services.